FW2602 Weather Reports


Display with metric or nautical units.
time (UTC)temp
F
wind
direction
speed
MPH
gust
MPH
rain 1hr
in
rain 24hr
in
rain mn
in
humidity
%
barometer
mb
20260510122623 53 278 0.0 4.0 0.00 0.25 0.00 81 1010.8
20260510122029 53 271 1.0 4.0 0.00 0.25 0.00 82 1010.7
20260510121529 53 293 1.0 4.0 0.00 0.25 0.00 82 1010.8
20260510121028 53 258 2.0 4.0 0.00 0.25 0.00 83 1010.8
20260510120531 53 296 1.0 4.0 0.00 0.25 0.00 82 1010.9
20260510120037 53 288 1.0 7.0 0.00 0.25 0.00 81 1010.8
20260510115526 53 280 3.0 7.0 0.00 0.27 0.00 81 1010.8
20260510115029 53 289 1.0 6.0 0.00 0.27 0.00 81 1010.7
20260510114526 53 293 4.0 8.0 0.00 0.27 0.00 81 1010.8
20260510114025 53 270 4.0 8.0 0.00 0.27 0.00 81 1010.7
20260510113524 53 279 2.0 7.0 0.00 0.27 0.00 81 1010.5
20260510113025 53 294 2.0 8.0 0.00 0.27 0.00 81 1010.4
20260510112522 53 260 3.0 9.0 0.00 0.27 0.00 81 1010.4
20260510112022 52 330 4.0 7.0 0.00 0.27 0.00 82 1010.4
20260510111521 52 283 4.0 7.0 0.00 0.27 0.00 82 1010.3
20260510111020 52 291 2.0 8.0 0.00 0.27 0.00 83 1010.2
20260510110520 52 321 5.0 8.0 0.00 0.27 0.00 82 1010.3
20260510110024 52 291 3.0 7.0 0.00 0.27 0.00 82 1010.2
20260510105518 52 302 2.0 6.0 0.00 0.28 0.00 82 1010.0
20260510105018 52 315 0.0 5.0 0.00 0.28 0.00 81 1010.0
20260510104518 52 303 1.0 5.0 0.00 0.28 0.00 81 1010.0
20260510104017 52 295 0.0 4.0 0.00 0.28 0.00 80 1010.1
20260510103517 52 289 0.0 5.0 0.00 0.28 0.00 80 1010.0
20260510103017 52 290 2.0 5.0 0.00 0.28 0.00 80 1009.9
20260510102516 52 244 0.0 6.0 0.00 0.28 0.00 81 1009.9
20260510102016 52 310 4.0 7.0 0.00 0.28 0.00 81 1009.9
20260510101516 52 280 1.0 7.0 0.00 0.28 0.00 81 1009.8
20260510101015 51 252 1.0 4.0 0.00 0.28 0.00 82 1009.7
20260510100517 51 274 1.0 4.0 0.00 0.28 0.00 82 1009.6
20260510100015 52 290 1.0 4.0 0.00 0.28 0.00 81 1009.5
20260510095516 52 302 0.0 4.0 0.00 0.28 0.00 81 1009.3
20260510095014 52 287 1.0 4.0 0.00 0.28 0.00 81 1009.2
20260510094525 52 305 1.0 4.0 0.00 0.28 0.00 81 1009.2
20260510094014 52 259 1.0 5.0 0.00 0.28 0.00 81 1009.2
20260510093514 52 264 2.0 6.0 0.00 0.28 0.00 81 1009.1
20260510093014 52 270 2.0 8.0 0.00 0.28 0.00 81 1008.9
20260510092514 52 316 3.0 9.0 0.00 0.28 0.00 81 1008.9
20260510092013 52 310 3.0 9.0 0.00 0.28 0.00 81 1008.7
20260510091520 51 297 2.0 7.0 0.00 0.28 0.00 82 1008.7
20260510091113 51 312 3.0 7.0 0.00 0.28 0.00 82 1008.7
20260510090512 51 276 3.0 8.0 0.00 0.28 0.00 82 1008.7
20260510090012 51 293 3.0 8.0 0.00 0.28 0.00 82 1008.8
20260510085511 51 312 1.0 6.0 0.00 0.30 0.00 82 1008.7
20260510085011 51 233 1.0 6.0 0.00 0.30 0.00 83 1008.7
20260510084511 50 256 1.0 3.0 0.00 0.30 0.00 84 1008.7
20260510084010 51 243 0.0 4.0 0.00 0.30 0.00 83 1008.7
20260510083512 51 323 0.0 4.0 0.00 0.30 0.00 82 1008.7
20260510083010 51 307 1.0 6.0 0.00 0.30 0.00 82 1008.6
20260510082509 51 264 1.0 9.0 0.00 0.30 0.00 82 1008.7
20260510082011 52 293 5.0 11.0 0.00 0.30 0.00 81 1008.6
20260510081509 52 307 4.0 11.0 0.00 0.30 0.00 80 1008.5
20260510081008 52 262 3.0 8.0 0.00 0.30 0.00 79 1008.5
20260510080508 52 311 2.0 7.0 0.00 0.30 0.00 78 1008.5
20260510080007 52 303 3.0 7.0 0.00 0.30 0.00 78 1008.4
20260510075509 52 311 1.0 6.0 0.00 0.30 0.00 79 1008.5
20260510075006 52 226 1.0 7.0 0.00 0.30 0.00 80 1008.5
20260510074506 52 295 2.0 8.0 0.00 0.30 0.00 80 1008.6
20260510074004 52 311 4.0 11.0 0.00 0.30 0.00 80 1008.7
20260510073504 52 287 4.0 11.0 0.00 0.30 0.00 81 1008.8
20260510073004 52 286 3.0 9.0 0.00 0.30 0.00 81 1008.7
20260510072503 52 259 2.0 9.0 0.00 0.30 0.00 81 1008.7
20260510072002 52 353 2.0 9.0 0.00 0.30 0.00 82 1008.8
20260510071502 52 305 3.0 9.0 0.00 0.30 0.00 81 1009.0
20260510071002 52 315 3.0 8.0 0.00 0.30 0.00 81 1008.8
20260510070502 52 293 0.0 4.0 0.00 0.30 0.00 82 1008.7
20260510070001 51 169 0.0 4.0 0.00 0.30 0.00 83 1008.4
20260510065600 51 249 1.0 4.0 0.00 0.30 0.00 84 1008.9
20260510065059 52 312 0.0 6.0 0.00 0.30 0.00 85 1009.1
20260510064558 52 295 2.0 8.0 0.00 0.30 0.00 84 1009.2
20260510064057 52 274 3.0 10.0 0.00 0.30 0.00 85 1009.5
20260510063557 52 301 6.0 10.0 0.00 0.30 0.00 85 1009.6
20260510063105 52 269 3.0 11.0 0.00 0.30 0.00 85 1009.6
20260510062558 52 266 6.0 11.0 0.00 0.30 0.00 86 1009.9
20260510062055 52 267 6.0 12.0 0.00 0.30 0.00 86 1009.8
20260510061556 52 317 6.0 14.0 0.00 0.30 0.00 86 1009.8
20260510061055 52 302 7.0 14.0 0.00 0.30 0.00 86 1009.8
20260510060555 52 312 8.0 15.0 0.00 0.30 0.00 86 1009.8
20260510060059 52 307 10.0 18.0 0.00 0.30 0.00 87 1009.9
20260510055554 52 264 11.0 20.0 0.00 0.30 0.00 86 1010.0
20260510055053 53 295 11.0 20.0 0.00 0.30 0.00 86 1009.9
20260510054557 53 259 11.0 18.0 0.00 0.30 0.00 86 1009.9
20260510054050 52 264 8.0 17.0 0.00 0.30 0.00 86 1009.8
20260510053549 52 294 6.0 14.0 0.00 0.30 0.00 87 1009.8
20260510053047 52 301 7.0 13.0 0.00 0.30 0.00 88 1009.8
20260510052546 51 274 7.0 13.0 0.00 0.30 0.00 89 1009.6
20260510052045 51 291 4.0 7.0 0.00 0.30 0.00 89 1009.4
20260510051611 50 294 3.0 7.0 0.00 0.30 0.00 90 1009.2
20260510051044 50 274 3.0 7.0 0.00 0.30 0.00 90 1009.1
20260510050541 50 312 1.0 6.0 0.00 0.30 0.00 90 1008.9
20260510050041 50 297 1.0 6.0 0.00 0.30 0.00 90 1009.0
20260510045540 50 8 1.0 6.0 0.00 0.30 0.00 90 1008.9
20260510045039 50 77 1.0 4.0 0.00 0.30 0.00 90 1008.9
20260510044539 50 75 0.0 3.0 0.00 0.30 0.00 90 1008.9
20260510044039 49 71 0.0 3.0 0.00 0.30 0.00 89 1008.8
20260510043536 50 317 0.0 2.0 0.00 0.30 0.00 89 1008.9
20260510043045 50 49 0.0 4.0 0.00 0.30 0.00 89 1008.9
20260510042535 50 84 0.0 4.0 0.00 0.30 0.00 89 1008.9
20260510042034 50 183 0.0 4.0 0.00 0.30 0.00 89 1009.0
20260510041534 50 27 0.0 3.0 0.00 0.30 0.00 88 1009.0
20260510041033 50 89 0.0 3.0 0.00 0.30 0.00 88 1009.0
20260510040532 50 74 0.0 3.0 0.00 0.30 0.00 88 1009.0
20260510040032 51 307 0.0 4.0 0.00 0.30 0.00 87 1009.1
20260510035531 51 232 0.0 4.0 0.00 0.30 0.30 87 1009.0
20260510035034 51 309 1.0 5.0 0.00 0.30 0.30 87 1009.0
20260510034530 51 347 0.0 7.0 0.00 0.30 0.30 86 1009.0
20260510034029 51 314 1.0 7.0 0.00 0.30 0.30 86 1008.8
20260510033528 51 321 1.0 8.0 0.00 0.30 0.30 86 1008.7
20260510033029 51 304 1.0 7.0 0.00 0.30 0.30 86 1008.6
20260510032528 51 138 3.0 7.0 0.00 0.30 0.30 86 1008.5
20260510032028 51 331 3.0 7.0 0.00 0.30 0.30 87 1008.7
20260510031545 51 302 2.0 7.0 0.00 0.30 0.30 87 1008.7
20260510031031 51 39 2.0 7.0 0.00 0.30 0.30 87 1008.7
20260510030531 51 333 2.0 6.0 0.00 0.30 0.30 88 1008.7
20260510030028 51 30 1.0 6.0 0.00 0.30 0.30 88 1008.7
20260510025528 51 188 1.0 4.0 0.00 0.30 0.30 88 1008.7
20260510025030 50 58 1.0 5.0 0.00 0.30 0.30 89 1008.6
20260510024530 50 89 1.0 7.0 0.00 0.30 0.30 89 1008.5
20260510024026 50 33 1.0 7.0 0.00 0.30 0.30 89 1008.6
20260510023527 50 307 1.0 4.0 0.00 0.30 0.30 89 1008.7
20260510023041 50 263 1.0 5.0 0.00 0.30 0.30 90 1008.8
20260510022526 50 71 0.0 4.0 0.00 0.30 0.30 90 1009.0
20260510022026 50 61 0.0 5.0 0.00 0.30 0.30 90 1009.0
20260510021526 50 77 1.0 5.0 0.00 0.30 0.30 89 1008.9
20260510021025 50 60 1.0 4.0 0.00 0.30 0.30 89 1008.8
20260510020525 51 99 1.0 4.0 0.00 0.30 0.30 88 1008.7
20260510020025 51 68 0.0 4.0 0.00 0.30 0.30 87 1008.8
20260510015526 51 87 1.0 5.0 0.00 0.30 0.30 87 1008.8
20260510015025 51 62 1.0 3.0 0.00 0.30 0.30 87 1008.8
20260510014526 52 80 0.0 3.0 0.00 0.30 0.30 87 1008.8
20260510014025 52 75 0.0 4.0 0.00 0.30 0.30 87 1008.9
20260510013525 52 76 0.0 2.0 0.00 0.30 0.30 87 1008.7
20260510013024 52 51 0.0 1.0 0.00 0.30 0.30 87 1008.8
20260510012527 51 48 0.0 3.0 0.00 0.30 0.30 87 1008.9
20260510012024 52 79 0.0 3.0 0.00 0.30 0.30 87 1008.9
20260510011526 52 360 0.0 3.0 0.00 0.30 0.30 87 1008.8
20260510011027 52 335 0.0 5.0 0.00 0.30 0.30 87 1008.9
20260510010520 52 20 0.0 5.0 0.00 0.30 0.30 87 1008.7
20260510010026 52 337 0.0 5.0 0.00 0.30 0.30 87 1008.8
20260510005511 51 53 1.0 5.0 0.00 0.30 0.30 88 1008.7
20260510005015 51 250 1.0 4.0 0.00 0.30 0.30 89 1008.8
20260510004525 51 259 0.0 3.0 0.00 0.30 0.30 89 1008.8
20260510004011 51 81 0.0 6.0 0.00 0.30 0.30 90 1008.8
20260510003516 51 41 0.0 6.0 0.00 0.30 0.30 90 1008.6
20260510003017 51 84 0.0 2.0 0.00 0.30 0.30 90 1008.5
20260510002524 51 115 0.0 4.0 0.00 0.30 0.30 90 1008.4
20260510002011 51 78 0.0 1.0 0.00 0.30 0.30 90 1008.3
20260510001518 51 86 0.0 2.0 0.00 0.30 0.30 90 1008.4
20260510001020 51 99 0.0 2.0 0.00 0.30 0.30 90 1008.4
20260510000509 51 99 0.0 1.0 0.00 0.30 0.30 89 1008.5
20260510000015 51 290 0.0 2.0 0.00 0.30 0.30 89 1008.4
20260509235525 51 291 0.0 2.0 0.00 0.30 0.30 89 1008.5
20260509235009 52 306 0.0 1.0 0.00 0.30 0.30 88 1008.5
20260509234520 52 307 0.0 1.0 0.00 0.30 0.30 88 1008.2
20260509234024 52 307 0.0 1.0 0.00 0.30 0.30 87 1008.1
20260509233510 52 307 0.0 1.0 0.00 0.30 0.30 87 1008.0
20260509233015 52 124 0.0 1.0 0.00 0.30 0.30 87 1007.8
20260509232523 52 264 0.0 1.0 0.00 0.30 0.30 87 1007.9
20260509232007 53 264 0.0 2.0 0.00 0.30 0.30 86 1007.8
20260509231517 53 264 0.0 6.0 0.00 0.30 0.30 85 1007.8
20260509231021 53 266 0.0 6.0 0.00 0.30 0.30 85 1007.9
20260509230511 53 297 0.0 4.0 0.00 0.30 0.30 86 1007.9
20260509230018 53 291 1.0 4.0 0.00 0.30 0.30 85 1007.9
20260509225510 53 276 0.0 8.0 0.00 0.30 0.30 85 1007.7
20260509225015 53 278 3.0 8.0 0.00 0.30 0.30 85 1007.7
20260509224526 53 290 2.0 6.0 0.00 0.30 0.30 86 1007.7
20260509224010 53 301 3.0 6.0 0.00 0.30 0.30 85 1007.7
20260509223517 53 312 0.0 5.0 0.00 0.30 0.30 85 1007.7
20260509223025 53 295 2.0 6.0 0.00 0.30 0.30 85 1007.7
20260509222510 53 295 2.0 8.0 0.00 0.30 0.30 85 1007.8
20260509222015 53 295 0.0 8.0 0.00 0.30 0.30 85 1007.7
20260509221509 53 297 2.0 7.0 0.00 0.30 0.30 85 1007.8
20260509221013 53 298 2.0 5.0 0.00 0.30 0.30 85 1007.9
20260509220524 53 276 2.0 5.0 0.00 0.30 0.30 85 1007.9
20260509220010 53 276 0.0 5.0 0.00 0.30 0.30 85 1008.0
20260509215521 53 281 1.0 11.0 0.00 0.30 0.30 84 1008.0
20260509215024 53 258 5.0 11.0 0.00 0.30 0.30 84 1008.0
20260509214515 53 302 4.0 10.0 0.00 0.30 0.30 85 1008.2
20260509214021 53 285 4.0 7.0 0.00 0.30 0.30 86 1008.1
20260509213510 53 316 1.0 7.0 0.00 0.30 0.30 86 1008.1
20260509213017 53 224 1.0 7.0 0.00 0.30 0.30 86 1008.1
20260509212527 53 173 2.0 9.0 0.00 0.30 0.30 87 1008.2
20260509212015 52 283 5.0 9.0 0.00 0.30 0.30 88 1008.1
20260509211547 52 296 0.0 5.0 0.00 0.30 0.30 89 1008.1
20260509211009 52 278 1.0 5.0 0.00 0.30 0.30 89 1008.3
20260509210519 52 312 0.0 5.0 0.00 0.30 0.30 90 1008.2
20260509210005 52 294 1.0 4.0 0.00 0.30 0.30 90 1008.2
20260509205515 51 300 1.0 4.0 0.00 0.30 0.30 90 1008.3
20260509205021 51 295 1.0 4.0 0.00 0.30 0.30 91 1008.3
20260509204510 51 250 2.0 4.0 0.00 0.30 0.30 92 1008.3
20260509204015 51 158 0.0 6.0 0.00 0.30 0.30 92 1008.3
20260509203526 51 253 0.0 6.0 0.00 0.30 0.30 93 1008.3
20260509203022 50 298 1.0 6.0 0.00 0.30 0.30 93 1008.3
20260509202519 50 287 1.0 6.0 0.00 0.30 0.30 93 1008.5
20260509202004 50 328 0.0 3.0 0.00 0.30 0.30 93 1008.5
20260509201520 50 342 0.0 3.0 0.00 0.30 0.30 93 1008.5
20260509201021 50 30 0.0 5.0 0.00 0.30 0.30 93 1008.6
20260509200530 50 269 1.0 5.0 0.00 0.30 0.30 93 1008.5
20260509200013 50 335 0.0 3.0 0.00 0.30 0.30 93 1008.6
20260509195521 50 328 0.0 5.0 0.00 0.30 0.30 94 1008.6
20260509195020 50 71 0.0 5.0 0.00 0.30 0.30 94 1008.8
20260509194510 50 65 1.0 5.0 0.00 0.30 0.30 94 1008.8
20260509194016 50 51 0.0 4.0 0.00 0.30 0.30 94 1008.8
20260509193507 50 314 1.0 3.0 0.00 0.30 0.30 94 1008.9
20260509193012 50 315 0.0 4.0 0.01 0.30 0.30 94 1008.9
20260509192520 49 117 1.0 4.0 0.01 0.30 0.30 94 1008.9
20260509192009 49 6 0.0 4.0 0.01 0.30 0.30 94 1009.1
20260509191520 49 73 1.0 4.0 0.01 0.30 0.30 94 1009.1
20260509191027 49 1 0.0 5.0 0.01 0.30 0.30 94 1009.1
20260509190512 49 24 1.0 6.0 0.01 0.30 0.30 94 1009.1
20260509190023 49 136 1.0 6.0 0.01 0.30 0.30 94 1009.2
20260509185526 49 114 1.0 5.0 0.01 0.30 0.30 94 1009.3
20260509185013 49 59 1.0 5.0 0.01 0.30 0.30 94 1009.3
20260509184521 49 316 1.0 5.0 0.01 0.30 0.30 94 1009.4
20260509184006 49 23 1.0 5.0 0.01 0.30 0.30 94 1009.4
20260509183515 49 53 1.0 6.0 0.01 0.30 0.30 94 1009.4
20260509183023 49 262 1.0 6.0 0.00 0.28 0.28 94 1009.4
20260509182511 49 198 0.0 5.0 0.00 0.28 0.28 94 1009.3
20260509182021 49 64 1.0 5.0 0.00 0.28 0.28 94 1009.3
20260509181508 49 228 0.0 6.0 0.01 0.28 0.28 94 1009.3
20260509181014 49 94 1.0 6.0 0.01 0.28 0.28 94 1009.2
20260509180522 49 114 2.0 5.0 0.02 0.28 0.28 94 1009.3
20260509180009 49 86 0.0 7.0 0.02 0.28 0.28 94 1009.4
20260509175519 49 82 3.0 8.0 0.02 0.32 0.28 94 1009.4
20260509175019 49 82 1.0 5.0 0.03 0.32 0.28 94 1009.5
20260509174509 49 70 1.0 4.0 0.04 0.32 0.28 94 1009.5
20260509174014 49 46 1.0 7.0 0.04 0.32 0.28 95 1009.5
20260509173525 49 40 2.0 7.0 0.04 0.32 0.28 95 1009.4
20260509173033 49 172 1.0 7.0 0.05 0.32 0.28 95 1009.4
20260509172529 49 70 1.0 5.0 0.06 0.32 0.28 95 1009.4
20260509172019 49 64 0.0 6.0 0.06 0.32 0.28 95 1009.6
20260509171528 49 55 1.0 6.0 0.05 0.31 0.28 95 1009.5
20260509171010 49 141 1.0 5.0 0.06 0.31 0.28 95 1009.6
20260509170517 49 250 1.0 7.0 0.05 0.30 0.27 96 1009.7
20260509170006 48 70 1.0 7.0 0.06 0.30 0.27 96 1009.7
20260509165520 48 295 1.0 7.0 0.05 0.30 0.26 96 1009.9
20260509165019 48 4 0.0 7.0 0.05 0.30 0.26 96 1009.9
20260509164529 48 325 1.0 4.0 0.05 0.28 0.25 96 1009.9
20260509164015 48 51 1.0 5.0 0.05 0.28 0.25 96 1009.9
20260509163524 48 60 1.0 6.0 0.05 0.28 0.25 96 1009.9
20260509163014 47 30 1.0 7.0 0.05 0.28 0.24 96 1010.1
20260509162513 47 29 1.0 6.0 0.04 0.27 0.23 96 1010.1
20260509162013 47 259 1.0 6.0 0.05 0.27 0.23 96 1010.2
20260509161520 47 249 0.0 4.0 0.05 0.27 0.23 96 1010.3
20260509161028 47 73 0.0 4.0 0.04 0.26 0.22 96 1010.3
20260509160510 47 354 0.0 5.0 0.05 0.26 0.22 96 1010.4
20260509160017 47 222 1.0 5.0 0.04 0.25 0.21 96 1010.4
20260509155526 47 20 0.0 4.0 0.05 0.25 0.21 96 1010.6
20260509155014 47 26 0.0 3.0 0.05 0.25 0.21 96 1010.6
20260509154516 46 307 0.0 7.0 0.05 0.24 0.20 96 1010.7
20260509154021 46 75 1.0 7.0 0.05 0.24 0.20 96 1010.7
20260509153510 46 69 0.0 6.0 0.04 0.23 0.19 96 1010.8
20260509153020 46 89 1.0 7.0 0.05 0.23 0.19 96 1010.8
20260509152525 46 211 1.0 7.0 0.05 0.23 0.19 96 1010.9
20260509152014 46 63 0.0 3.0 0.04 0.22 0.18 96 1011.0
20260509151519 46 49 0.0 3.0 0.05 0.22 0.18 96 1011.1
20260509151022 45 21 0.0 3.0 0.05 0.22 0.18 96 1011.3
20260509150529 45 309 1.0 3.0 0.04 0.21 0.17 96 1011.2
20260509150012 44 290 0.0 3.0 0.04 0.21 0.17 96 1011.3
20260509145517 44 262 1.0 5.0 0.03 0.20 0.16 96 1011.4
20260509145022 44 280 3.0 5.0 0.03 0.20 0.16 96 1011.3
20260509144524 44 291 0.0 2.0 0.03 0.19 0.15 96 1011.3
20260509144010 44 290 0.0 3.0 0.03 0.19 0.15 96 1011.3
20260509143520 44 287 0.0 3.0 0.02 0.18 0.14 96 1011.2
20260509143025 44 293 0.0 2.0 0.02 0.18 0.14 96 1011.3
20260509142509 44 288 1.0 3.0 0.02 0.18 0.14 96 1011.3
20260509142013 44 300 1.0 3.0 0.03 0.18 0.14 96 1011.3
20260509141526 43 287 0.0 3.0 0.02 0.17 0.13 95 1011.3
20260509141013 43 295 1.0 3.0 0.02 0.17 0.13 95 1011.2
20260509140517 43 290 1.0 2.0 0.03 0.17 0.13 95 1011.1
20260509140022 43 298 0.0 3.0 0.03 0.17 0.13 95 1011.1
20260509135509 43 281 1.0 3.0 0.04 0.17 0.13 95 1011.2
20260509135017 43 292 0.0 2.0 0.04 0.17 0.13 95 1011.1
20260509134506 43 303 0.0 1.0 0.04 0.16 0.12 95 1011.2
20260509134013 43 303 0.0 1.0 0.05 0.16 0.12 95 1011.2
20260509133525 42 301 0.0 0.0 0.05 0.16 0.12 95 1011.3
20260509133010 42 301 0.0 2.0 0.06 0.16 0.12 95 1011.3
20260509132524 42 301 0.0 4.0 0.06 0.16 0.12 95 1011.4
20260509132004 42 300 0.0 4.0 0.06 0.15 0.11 95 1011.3
20260509131522 42 295 1.0 4.0 0.06 0.15 0.11 95 1011.4
20260509131019 42 297 0.0 0.0 0.06 0.15 0.11 94 1011.4
20260509130523 42 297 0.0 2.0 0.05 0.14 0.10 94 1011.4
20260509130016 42 297 0.0 2.0 0.05 0.14 0.10 94 1011.5
20260509125516 42 351 0.0 1.0 0.05 0.13 0.09 94 1011.4
20260509125017 42 352 0.0 1.0 0.05 0.13 0.09 94 1011.5
20260509124525 42 355 0.0 0.0 0.04 0.12 0.08 94 1011.4
20260509124010 42 301 0.0 2.0 0.03 0.11 0.07 93 1011.5
20260509123521 42 300 0.0 2.0 0.04 0.11 0.07 94 1011.5
20260509123026 42 98 0.0 2.0 0.03 0.10 0.06 93 1011.6